Wind_Gust
8 7 6 7 6 6 7 6 6 5 6 6 5 5 6 5 6 8 9 10 9 8 9 7 8 6 10 9 9 10 9 7 7 7 7 7 7 8 10 8 6 7 13 15 14 13 13 11 13 13 13 13 11 10 10 9 8 9 9 9 8 8 8 8 8 9 9 10 9 9 10 10 10 10 10 11 11 11 11 12 12 12 12 12 12
8 6 8 6 6 5 5 5 6 3 5 6 4 6 6 6 6 8 9 9 10 9 9 7 9 8 6 10 8 9 9 9 8 8 7 7 6 7 8 6 5 4 9 12 12 12 12 12 11 13 13 13 12 11 11 10 9 9 9 9 8 8 7 7 7 8 9 9 9 8 8 8 9 10 9 10 11 11 12 12 11 11 11 10 11
9 8 7 7 7 6 5 5 5 3 4 6 4 6 5 7 6 7 8 10 10 9 10 5 4 10 3 8 7 9 9 9 9 8 8 7 7 4 5 6 6 8 8 7 9 10 12 13 11 11 13 14 13 12 11 10 10 10 9 9 8 8 8 7 7 7 8 8 8 8 8 8 8 9 9 9 10 10 11 11 10 10 10 9 9
9 8 9 7 6 6 6 6 4 2 4 5 5 5 7 7 5 6 5 10 11 10 9 8 5 7 4 7 7 9 9 9 10 8 8 7 5 4 4 5 7 9 8 6 6 6 11 12 12 11 13 15 12 12 11 11 10 10 9 9 9 8 8 8 8 8 8 7 8 7 8 8 8 8 8 8 9 9 9 10 10 9 9 9 10
7 7 8 8 7 6 5 5 6 6 5 4 5 5 5 6 7 6 7 11 13 9 7 6 7 7 3 4 8 9 8 10 10 10 9 6 7 7 6 4 4 6 7 6 6 5 6 10 13 12 11 11 13 11 12 11 12 11 10 10 9 8 8 7 6 9 7 7 6 7 7 7 8 8 8 7 7 7 8 8 8 8 9 9 9
8 6 8 8 6 5 6 6 6 5 5 5 6 5 7 7 6 8 9 12 13 10 9 2 8 8 4 4 7 8 9 11 15 14 12 8 9 7 7 5 2 4 3 5 5 5 6 8 9 8 7 9 11 11 11 13 14 12 12 11 10 9 8 8 7 7 7 7 7 6 6 7 7 7 6 6 6 6 7 7 7 8 7 7 8
8 10 8 8 7 6 6 6 6 5 6 3 6 6 6 7 6 12 9 12 9 9 8 8 9 8 5 5 8 8 10 17 18 17 13 13 6 6 6 2 5 5 5 5 6 6 6 6 6 4 5 2 7 11 9 7 8 10 13 13 12 10 10 8 7 7 7 8 7 7 6 7 7 7 7 6 5 5 6 6 6 7 8 7 7
9 9 8 7 7 9 8 8 7 8 7 5 5 6 5 6 4 9 12 9 9 9 7 9 8 8 6 7 5 6 15 18 17 12 13 7 5 7 2 2 2 3 6 5 5 6 7 8 9 9 9 7 6 4 5 8 11 12 11 11 12 12 11 10 9 9 8 7 8 7 7 6 7 7 7 6 5 4 6 4 5 5 6 6 6
8 8 8 7 8 10 9 10 8 9 8 7 7 6 7 8 4 5 7 9 8 9 9 8 10 9 7 6 5 9 19 19 17 11 10 4 3 3 4 1 2 5 4 5 5 6 9 11 9 8 9 10 10 10 10 8 9 11 11 10 8 11 12 13 11 11 10 9 10 9 8 7 6 8 8 7 5 4 5 5 4 6 5 5 4
9 8 8 7 9 9 8 9 8 8 8 7 7 6 6 8 8 4 7 9 8 10 9 8 9 10 8 7 6 10 17 19 20 12 7 6 5 6 6 4 2 3 3 3 5 6 6 7 9 9 8 8 9 8 9 8 8 8 9 9 9 8 9 10 11 11 11 11 10 11 11 10 9 9 7 9 7 6 5 6 5 5 6 5 4
7 7 8 7 8 8 9 7 8 7 7 7 7 7 6 4 8 8 8 6 9 6 8 8 10 8 8 6 6 8 13 15 14 9 8 8 6 7 7 6 4 3 4 4 4 4 4 5 6 6 8 13 15 17 17 17 13 12 10 9 11 10 8 9 10 12 12 13 12 9 11 12 12 11 9 11 10 8 7 5 5 5 5 5 4
6 7 8 8 8 8 9 7 8 8 8 7 7 8 9 8 6 10 10 8 7 7 7 11 10 10 9 8 6 6 13 13 12 11 9 7 5 5 6 5 6 3 4 5 6 5 5 6 7 8 8 13 16 16 17 16 16 15 15 14 12 11 13 13 10 12 13 13 15 11 6 12 11 12 11 10 11 11 9 8 6 5 5 7 6
7 8 8 8 8 7 7 6 7 8 8 8 6 6 6 6 8 7 10 9 6 4 3 8 12 10 8 8 8 5 7 8 9 7 8 4 4 5 3 6 4 5 4 7 7 5 6 8 7 7 8 7 11 13 16 16 16 16 16 16 15 12 6 6 9 8 11 11 10 9 6 8 11 11 12 10 10 12 11 8 8 7 6 6 8
8 7 7 8 9 9 7 7 7 7 7 7 5 5 6 7 8 8 4 6 8 6 7 8 5 10 13 6 7 7 5 8 7 8 8 3 4 6 4 5 6 6 6 8 7 8 7 7 7 8 9 9 9 9 9 10 11 15 15 15 14 11 9 7 5 5 8 9 6 7 9 13 13 11 11 13 12 10 11 10 9 9 8 8 8
7 6 7 6 7 9 9 8 7 8 8 8 7 6 6 8 5 10 7 4 6 4 2 5 9 5 5 11 6 7 7 7 6 7 7 5 4 6 5 6 6 6 7 8 8 7 6 6 7 10 9 9 8 8 9 8 11 16 16 16 15 14 11 10 10 10 6 7 6 5 9 12 13 10 9 10 12 12 10 10 12 11 11 11 10
7 7 7 6 6 8 7 8 7 7 10 10 9 9 7 6 6 5 10 8 6 3 3 2 7 14 8 4 6 9 6 3 4 5 3 6 3 6 5 7 7 7 7 9 8 8 8 8 10 9 9 9 8 8 9 9 14 15 16 16 17 16 16 16 15 14 15 16 12 9 5 5 9 8 12 11 11 9 10 8 10 12 12 12 12
6 6 8 8 4 7 7 6 6 4 7 9 9 10 9 8 8 8 8 12 5 6 3 5 4 1 13 12 7 5 7 6 6 8 7 7 4 6 8 6 6 7 9 9 9 8 9 10 10 11 10 8 7 9 9 9 9 10 12 16 17 17 17 18 17 17 19 18 18 18 12 6 6 5 6 6 5 8 12 13 13 12 13 14 14
5 5 6 7 7 7 7 8 7 4 6 7 7 8 8 9 10 10 7 4 12 7 7 2 2 4 3 4 11 11 13 8 10 8 6 5 4 8 9 6 5 7 9 10 10 9 8 11 10 10 9 9 9 9 8 7 8 7 8 13 17 18 16 18 18 18 18 17 16 18 20 21 20 19 14 12 9 5 5 10 15 18 17 14 14
6 6 6 5 6 6 6 7 7 7 6 8 9 8 8 9 8 9 8 8 7 8 9 6 3 2 3 2 2 3 8 13 10 10 13 8 9 9 8 5 5 7 10 9 8 10 9 10 10 9 9 8 7 7 7 8 10 10 14 15 15 16 15 16 20 21 21 21 21 22 24 23 21 21 20 19 19 18 14 6 7 8 9 11 14
8 5 5 5 4 5 6 6 8 7 4 7 10 8 8 4 6 6 8 8 7 11 8 7 12 7 4 2 4 6 5 9 6 11 14 16 9 8 5 5 6 6 9 10 8 10 11 10 10 9 7 6 5 6 5 5 5 7 10 13 14 14 15 15 17 18 21 24 24 24 24 22 23 23 23 23 22 20 19 20 18 13 10 10 11
4 5 4 4 5 5 5 5 5 6 6 2 2 6 8 9 8 8 9 6 5 5 9 9 7 8 5 2 4 6 8 7 7 7 14 16 7 8 7 4 7 9 9 9 9 10 11 10 10 8 6 5 5 7 7 6 7 6 8 12 13 15 15 14 16 17 17 22 24 24 23 22 22 22 21 22 21 20 21 22 21 21 20 19 17
7 6 5 4 4 5 5 6 7 6 6 5 5 7 7 9 9 9 8 7 5 9 10 9 6 7 7 8 6 6 7 7 5 9 9 6 17 13 8 11 10 6 8 11 11 10 10 10 9 7 7 7 6 6 5 5 4 5 6 10 11 13 12 14 15 15 16 16 21 22 22 21 21 21 20 21 21 20 19 20 20 21 21 22 21
8 7 6 6 6 5 6 5 6 7 6 7 7 9 8 9 8 7 7 8 7 6 4 6 6 7 6 9 10 12 13 12 10 8 8 8 10 6 5 6 9 12 5 6 11 9 8 8 10 8 8 7 5 6 5 3 6 7 8 8 9 11 12 11 12 13 13 13 14 16 19 20 20 20 20 20 21 21 21 21 21 21 21 21 21
6 8 7 6 8 7 6 7 9 9 8 7 7 10 9 9 9 9 9 8 8 8 7 8 6 6 5 6 7 6 4 7 10 9 12 12 15 12 11 7 7 7 8 9 7 7 8 9 7 8 7 7 5 4 4 4 4 8 7 8 8 8 8 10 10 10 11 12 12 13 17 18 19 19 19 19 20 20 20 21 21 20 21 21 21
7 8 4 5 6 9 8 9 9 8 8 8 7 7 8 8 9 8 10 11 11 10 10 9 10 11 9 3 4 5 4 5 9 9 7 10 14 14 5 5 10 8 7 8 9 6 6 4 7 7 9 8 7 6 4 4 3 5 7 6 6 6 7 7 8 9 9 10 11 11 14 16 17 18 18 18 19 19 19 19 17 15 17 18 20
6 7 6 6 6 5 6 6 6 6 6 8 8 6 7 8 7 8 6 6 7 6 7 6 7 5 6 6 3 6 7 7 8 12 12 13 11 13 10 6 5 10 8 5 7 10 2 1 1 5 7 7 7 6 5 5 4 6 7 5 4 6 6 6 7 6 7 9 10 10 11 13 14 15 16 16 16 16 16 14 14 13 14 15 15
9 5 5 7 5 5 5 7 6 7 7 7 8 7 7 7 6 7 6 5 7 8 6 8 9 7 5 8 7 6 6 8 12 11 13 15 16 14 15 15 8 6 6 6 3 2 10 3 3 2 5 6 8 7 7 5 7 8 7 5 3 5 5 5 6 6 5 5 6 8 9 9 10 11 12 12 11 11 12 12 13 12 11 12 13
6 7 5 8 7 6 6 6 6 8 7 8 7 7 7 9 7 7 7 5 9 8 7 10 10 9 8 6 8 4 2 8 13 15 15 14 11 10 13 18 20 10 5 6 4 4 5 7 4 4 5 8 8 7 7 7 7 8 7 5 4 4 5 6 5 5 5 5 4 4 6 7 8 8 8 8 8 9 10 11 11 10 11 11 12
9 7 7 6 7 7 7 6 7 7 7 7 8 8 8 8 9 7 6 4 10 8 8 11 7 8 7 7 9 8 5 7 11 12 11 9 10 9 13 19 17 19 12 7 7 10 9 6 8 8 7 6 8 6 7 8 8 8 5 5 4 3 4 5 5 4 3 3 2 2 3 6 6 7 8 8 8 8 8 7 7 8 9 10 11
8 6 8 7 7 7 7 6 6 8 7 6 8 9 8 8 7 7 5 7 9 7 7 10 6 7 7 8 8 10 6 11 12 12 13 12 12 12 10 7 15 20 15 14 11 7 8 5 5 8 6 8 7 6 6 8 9 10 5 5 4 4 4 4 5 5 4 3 3 3 2 3 5 5 6 7 7 7 6 6 6 6 7 8 8
10 9 8 7 7 6 6 6 7 8 7 7 7 9 8 9 6 7 5 9 11 8 5 10 6 8 8 8 7 9 7 11 12 12 11 11 11 11 10 9 5 14 15 13 13 8 8 10 6 5 11 9 9 7 7 8 9 11 7 6 5 6 5 4 5 5 4 4 4 4 5 4 5 5 4 6 6 6 5 5 5 5 5 5 5
10 8 9 7 6 6 6 7 6 7 7 6 7 8 8 7 7 9 5 7 8 8 6 5 8 8 8 8 7 7 5 9 9 9 9 7 10 13 11 11 7 9 12 10 11 11 8 9 8 6 10 13 11 10 9 9 10 10 6 8 6 6 4 3 5 6 5 6 6 6 5 5 5 4 3 3 5 5 5 5 5 5 4 2 2
9 9 8 7 6 6 6 7 7 7 7 6 6 7 8 7 6 7 4 7 8 5 7 7 6 7 7 7 6 4 2 9 7 7 8 7 9 11 11 12 12 9 12 9 12 7 3 3 6 10 10 10 10 9 10 11 8 9 7 6 5 6 6 7 6 7 8 7 7 7 6 6 6 6 5 3 3 4 4 4 5 6 6 5 4
9 10 8 6 6 6 6 6 6 6 6 6 5 7 8 7 5 5 5 7 6 6 7 7 7 8 7 8 6 4 5 8 7 7 7 8 10 10 10 14 13 10 7 11 6 9 8 3 5 2 6 7 10 7 13 12 12 7 8 6 5 6 9 7 8 9 10 9 9 8 7 7 7 7 6 5 4 4 4 5 6 6 6 7 6
6 10 9 8 7 6 5 4 6 5 5 6 4 6 6 7 7 4 4 6 6 7 7 7 7 6 7 7 5 4 5 9 7 6 6 7 7 11 7 6 11 9 7 10 12 7 10 9 7 7 8 9 11 10 9 9 6 4 7 9 10 9 8 7 9 8 9 11 10 9 9 8 8 8 7 7 7 7 6 7 7 6 7 7 7
8 6 8 9 7 7 7 5 6 5 5 5 5 6 7 7 6 6 4 5 6 7 8 7 6 7 7 7 4 5 7 8 6 7 6 7 9 6 6 3 7 9 7 8 9 11 8 11 7 11 9 9 12 7 6 5 6 7 8 6 6 9 6 7 8 9 9 12 11 10 9 8 7 6 7 9 9 9 8 9 8 8 9 10 9
5 7 5 6 8 7 9 8 5 6 7 7 7 6 6 7 8 7 7 8 8 8 8 8 7 7 6 7 5 6 7 9 6 7 6 6 6 7 6 5 6 9 7 6 5 6 10 11 10 8 3 6 5 5 6 9 6 5 4 4 5 8 6 5 5 8 5 6 7 8 7 8 7 7 9 9 9 9 10 10 10 9 10 11 10
5 4 9 6 10 9 8 8 6 7 6 6 7 6 6 7 9 9 9 9 9 10 9 9 9 8 8 8 7 7 8 10 8 7 7 7 6 8 7 6 5 6 7 4 5 7 10 10 10 8 2 7 5 5 8 7 10 6 4 3 4 4 4 4 2 3 5 5 2 3 2 4 5 5 7 10 12 13 12 12 12 8 7 10 11
5 4 7 8 7 10 8 7 7 9 7 6 6 5 5 7 8 9 8 7 7 8 8 10 10 9 9 9 8 8 8 9 10 10 9 7 8 7 10 9 5 7 7 5 5 6 6 6 4 5 9 8 6 8 2 5 7 7 10 5 3 4 4 3 6 6 7 6 3 5 7 6 9 10 13 16 15 15 16 15 13 13 10 8 11
3 5 7 9 7 8 10 9 9 9 8 7 6 6 7 7 7 6 7 7 7 7 8 9 10 11 11 11 10 9 9 9 10 9 10 11 8 7 5 9 9 9 8 7 6 6 6 6 5 6 3 5 4 3 4 6 4 3 3 6 7 3 3 7 5 4 5 7 10 10 7 11 10 10 11 11 13 17 18 16 16 15 14 9 9
4 6 6 6 8 7 7 9 8 7 9 10 9 8 9 8 8 8 8 7 7 7 7 9 8 8 8 10 8 8 9 10 11 10 9 10 12 10 6 6 7 9 8 7 9 9 6 8 3 2 3 2 3 3 5 3 6 11 3 4 4 1 1 5 4 5 5 5 5 4 7 5 10 10 8 11 13 12 14 15 14 18 20 16 11
2 2 1 3 8 10 8 6 7 7 10 9 10 13 9 10 9 9 8 8 7 6 8 8 7 6 7 7 8 11 11 12 11 10 11 12 11 13 13 8 9 8 8 8 8 8 9 8 9 8 5 4 4 2 4 4 3 3 8 7 5 4 3 6 3 4 5 9 11 12 13 8 10 11 10 10 11 10 8 12 14 15 18 20 19
6 7 7 3 1 5 8 10 9 9 9 10 14 15 15 14 11 9 10 10 7 8 9 9 10 9 6 6 7 8 10 9 12 12 12 11 10 10 11 10 8 12 9 8 8 10 11 9 7 5 7 7 2 3 5 6 4 6 6 7 9 8 7 5 8 13 4 10 9 9 12 8 6 9 9 8 8 9 10 12 13 17 19 20 21
5 7 8 6 6 3 2 3 6 8 9 6 7 13 17 18 15 14 10 9 9 9 9 9 8 8 8 7 5 6 7 10 10 8 6 7 9 9 8 8 7 5 5 11 10 8 7 8 8 9 10 9 7 6 5 5 8 9 7 8 5 7 5 3 4 5 10 8 5 5 9 8 6 6 6 6 6 5 8 11 15 17 19 20 21
5 6 3 6 7 5 5 2 4 6 6 6 11 13 13 14 17 15 12 13 14 13 12 11 10 10 9 10 10 10 10 9 9 8 9 7 5 8 9 9 6 5 5 4 5 10 12 10 11 9 10 10 8 7 6 7 6 9 5 6 3 5 4 4 4 4 8 2 7 5 3 6 5 5 5 6 6 5 8 9 14 16 18 19 20
3 3 2 3 2 3 4 5 2 1 3 3 8 13 17 17 16 12 10 13 15 15 15 14 13 12 11 11 11 10 8 8 9 9 8 8 8 7 6 4 4 4 5 4 4 7 8 12 14 14 10 9 13 7 6 8 9 8 8 4 5 6 4 3 2 5 5 7 6 4 5 5 5 5 6 8 6 7 6 8 13 16 15 16 17
7 9 9 6 4 4 3 3 3 2 2 5 6 8 10 13 15 12 10 8 10 10 8 9 11 12 11 10 9 9 4 4 7 5 9 9 9 8 7 5 5 2 3 3 1 2 5 6 9 9 11 7 9 9 6 6 9 10 10 9 11 6 5 2 4 4 5 7 5 5 6 6 5 8 5 7 7 8 4 6 11 13 12 12 13
10 8 7 4 5 5 6 6 8 7 7 9 9 9 9 9 11 10 10 8 9 8 8 9 10 11 10 12 12 12 9 7 8 10 8 10 9 9 8 6 4 3 2 3 5 6 2 7 10 13 13 13 11 12 11 9 7 8 10 10 9 7 7 8 3 7 4 6 7 6 5 5 3 5 7 7 5 7 5 5 6 10 10 10 9
8 8 6 6 7 7 6 5 7 8 8 10 11 13 12 12 8 9 8 10 8 10 12 11 11 10 8 7 9 10 9 10 11 13 14 14 12 13 11 8 5 5 4 4 8 9 8 12 12 13 13 13 12 11 10 9 10 9 11 10 4 4 9 6 4 6 5 4 7 5 4 6 7 5 8 7 5 7 3 4 4 6 10 10 9
10 7 5 6 7 6 7 9 8 8 10 11 13 14 14 13 12 12 13 12 13 10 9 7 6 9 11 15 13 13 11 10 12 14 17 18 13 13 13 12 9 7 5 3 7 8 9 10 10 10 11 12 11 9 8 7 6 4 11 9 7 10 9 6 4 4 7 4 7 5 8 5 6 5 5 9 7 8 3 4 7 7 7 6 6
10 10 9 7 8 6 5 8 8 9 11 12 13 14 15 14 12 10 10 9 9 12 14 14 10 9 7 10 16 15 12 12 16 17 19 17 14 15 16 16 15 14 13 11 12 11 7 8 5 8 5 7 7 7 6 8 9 8 9 10 8 9 9 6 5 3 9 6 5 4 9 7 7 5 4 13 10 11 4 4 5 6 7 6 5
Wind_Speed
5 4 4 4 3 3 4 3 4 3 4 4 3 3 3 3 4 5 5 5 4 5 4 3 5 4 6 5 5 5 5 4 4 4 4 4 3 5 6 5 4 5 10 12 11 10 9 7 9 9 9 8 8 7 7 6 6 6 6 6 5 5 5 6 6 6 7 7 7 7 7 7 7 7 7 8 8 8 8 9 9 9 8 8 10
5 4 5 4 3 3 3 3 4 2 3 4 2 4 3 2 4 4 5 5 6 4 4 4 4 4 3 6 5 5 5 5 5 5 4 4 3 3 5 4 4 3 7 9 9 9 9 8 8 9 10 9 8 8 8 7 7 6 6 5 5 5 5 5 5 6 6 6 6 6 6 6 7 7 7 8 8 8 8 8 8 8 7 7 9
5 5 4 4 3 3 2 2 3 2 3 4 4 4 3 2 3 4 4 6 6 4 4 3 2 4 2 4 4 5 5 5 5 5 4 3 2 2 3 5 5 5 4 5 7 8 9 8 7 8 10 10 8 8 8 8 7 7 6 6 6 5 5 5 5 5 5 5 6 6 5 6 6 7 7 7 7 7 8 8 7 8 7 6 8
4 4 5 4 4 4 3 3 3 2 2 3 4 4 3 2 3 4 2 5 6 5 3 5 4 4 3 3 4 5 5 5 5 5 3 2 3 3 2 3 5 6 6 5 4 4 8 8 7 7 8 9 8 8 8 8 7 7 7 6 6 5 5 5 5 5 5 5 5 5 5 5 6 6 6 6 6 6 6 8 8 7 7 6 7
4 4 4 5 4 4 3 3 3 2 2 3 3 4 4 4 3 4 3 4 6 5 4 3 2 3 2 2 5 5 5 5 6 5 1 3 3 3 4 1 1 4 5 5 5 5 4 8 8 8 7 7 8 7 7 7 8 7 7 7 6 6 5 4 4 5 4 4 4 4 4 5 5 5 5 5 5 5 6 6 5 6 6 6 6
4 4 5 5 4 3 3 3 3 3 3 3 4 3 3 4 4 5 4 5 6 6 5 2 1 3 2 2 3 5 5 7 7 2 5 2 3 3 1 0 1 3 2 4 4 4 5 7 6 5 4 6 7 7 7 8 8 8 8 7 7 7 6 5 3 4 4 4 4 4 4 4 5 4 4 4 4 4 5 5 5 6 5 5 6
5 6 5 5 4 4 3 3 4 3 4 2 4 4 4 4 4 7 4 4 5 4 5 3 2 5 2 3 5 5 7 9 5 6 5 2 3 2 1 2 3 3 2 2 4 4 5 5 5 3 3 1 4 8 6 3 5 7 7 8 8 7 7 5 5 4 4 4 4 4 4 5 5 5 4 4 3 3 3 3 4 5 6 5 5
5 5 4 4 5 4 4 4 3 3 3 3 3 4 3 4 2 6 6 4 6 5 4 4 4 5 3 4 4 4 9 8 6 5 1 2 3 1 1 1 2 1 3 3 3 4 6 6 7 7 7 5 4 2 2 4 8 9 6 4 6 7 6 6 6 6 6 4 4 5 4 4 4 5 5 4 3 2 3 2 3 3 4 4 4
5 4 4 4 4 5 4 5 4 4 4 3 3 3 4 4 3 2 4 5 4 5 5 4 5 5 4 4 3 6 10 5 6 4 2 3 2 2 0 1 1 2 2 2 4 3 6 8 7 7 7 8 8 7 7 4 4 5 5 5 3 6 5 5 7 7 7 6 7 6 6 5 4 5 5 5 3 2 3 2 1 3 2 2 3
5 4 4 4 5 5 4 4 4 4 4 4 4 4 3 5 5 3 4 5 5 6 6 4 5 5 5 5 4 6 10 6 4 2 3 3 3 4 3 2 2 2 1 2 3 3 3 5 7 7 7 6 8 6 6 4 2 2 4 3 4 3 3 6 7 8 8 8 7 8 8 8 7 7 5 7 5 4 3 3 2 2 3 2 2
4 4 4 4 5 5 5 4 5 4 4 3 4 4 4 2 4 4 4 3 4 4 5 5 5 5 5 4 4 6 7 5 5 5 3 3 3 3 4 3 1 2 2 2 2 3 3 3 4 4 5 11 12 14 13 13 10 8 6 5 6 6 4 4 6 9 9 9 8 7 10 10 9 8 7 8 7 6 5 3 3 2 3 3 3
4 4 5 5 5 5 6 5 5 5 4 4 3 5 5 4 3 5 6 4 4 4 4 6 6 6 5 5 4 5 9 5 2 2 2 2 2 3 4 2 2 1 2 3 3 3 3 4 4 4 5 9 13 13 13 13 12 11 11 8 4 4 1 3 4 5 8 7 12 10 5 9 9 9 8 8 8 7 6 5 4 3 3 5 4
4 4 5 5 5 4 4 4 4 4 5 5 4 3 4 3 3 3 6 5 2 2 2 4 7 5 5 5 5 3 4 5 3 3 2 1 2 1 2 3 2 2 2 4 4 3 4 4 4 5 5 4 6 10 13 12 13 12 12 10 7 5 2 1 3 3 5 6 7 6 4 4 8 8 9 7 8 9 8 6 6 5 5 5 5
4 4 3 5 5 5 5 4 4 4 4 4 3 3 4 4 3 4 2 4 3 3 4 3 2 4 6 3 3 4 3 5 3 3 3 2 2 2 2 2 3 3 3 5 4 4 4 4 5 5 5 5 5 5 5 6 7 11 11 11 9 6 6 3 2 2 5 6 3 4 6 10 8 2 6 8 9 8 9 8 7 7 6 6 7
4 3 3 3 4 5 5 4 4 4 5 4 4 4 4 5 3 5 4 2 3 1 1 2 3 3 3 5 1 3 4 3 3 4 2 3 2 2 3 3 3 3 4 5 5 4 4 3 4 6 5 4 5 4 5 5 6 12 13 12 10 8 8 7 7 7 3 3 1 1 4 8 3 5 4 8 9 8 7 8 9 9 8 7 8
4 4 3 3 4 5 4 4 5 4 5 6 4 4 4 4 3 2 4 4 1 1 2 2 3 7 3 1 1 4 3 1 2 3 1 4 2 2 3 4 3 4 5 5 5 5 4 4 6 5 5 5 4 4 5 5 9 11 12 12 11 11 11 11 11 10 11 12 9 7 2 1 4 2 3 7 9 7 7 7 8 10 9 9 9
4 4 4 4 3 4 4 3 3 3 4 5 5 6 5 4 5 4 4 6 2 1 1 3 3 1 6 4 3 1 2 2 3 4 4 3 2 3 3 3 4 4 5 5 5 5 5 6 6 6 5 5 5 5 5 5 5 5 6 10 12 13 13 13 11 13 14 13 12 10 7 5 3 2 4 1 2 6 7 8 10 9 10 11 11
3 3 3 3 4 4 4 5 4 3 4 4 4 4 4 5 5 5 3 1 5 4 2 2 2 2 2 2 5 4 5 3 4 2 3 3 1 4 4 3 3 5 5 6 6 5 5 6 5 6 5 6 5 5 5 4 4 4 4 6 12 13 12 13 14 13 13 11 11 12 15 16 16 15 12 10 7 1 3 7 9 9 12 11 11
3 3 3 2 2 3 3 4 4 3 3 5 5 5 5 5 4 4 4 4 3 4 5 3 2 2 2 2 1 1 5 5 3 4 5 3 4 3 4 2 3 5 6 5 5 6 5 5 6 6 5 4 4 4 4 4 6 6 9 9 11 11 11 13 14 16 14 13 14 16 17 18 16 16 16 15 15 15 12 2 4 4 5 6 9
4 3 3 3 2 3 3 4 4 3 2 4 6 5 4 3 4 3 3 4 4 5 4 3 6 2 2 1 3 3 3 5 4 5 6 6 3 4 3 2 3 4 6 6 5 6 6 5 6 5 4 4 3 3 3 3 3 3 5 9 10 10 10 11 14 14 16 17 16 16 16 16 17 17 16 15 15 15 15 16 14 11 8 3 5
2 3 2 3 3 3 3 3 3 4 3 2 1 4 5 5 5 5 5 3 3 3 5 5 4 4 2 1 3 3 5 4 4 4 5 7 3 3 2 2 5 5 5 4 5 5 6 6 5 4 3 3 3 3 3 3 3 3 4 7 9 9 9 11 13 14 14 17 17 17 16 17 17 16 16 16 15 16 16 17 17 17 17 15 14
3 3 3 2 2 3 3 4 4 3 3 3 3 3 4 5 5 5 4 4 3 5 6 5 4 4 4 4 2 3 4 3 2 5 4 3 8 6 4 7 5 2 3 5 6 5 5 5 5 4 3 4 3 3 3 3 2 3 4 6 7 8 8 11 12 13 13 13 16 16 16 16 16 16 16 16 15 15 15 15 16 16 15 16 15
5 3 4 4 3 3 3 3 4 4 3 4 4 5 5 5 4 3 3 4 4 4 3 3 3 4 3 5 6 7 6 5 5 4 4 3 4 3 2 2 5 7 2 3 6 5 4 3 5 4 4 4 3 3 2 2 3 3 5 6 6 8 8 9 10 11 11 11 11 13 14 15 15 15 15 15 14 14 15 15 16 16 16 16 15
3 5 4 4 4 4 4 5 5 5 5 4 4 5 5 5 5 5 4 3 3 4 4 5 4 4 3 4 5 4 3 4 5 5 7 7 8 6 6 2 4 3 4 5 4 3 2 3 3 4 4 4 3 2 1 1 1 4 3 5 6 6 6 7 9 9 10 10 10 11 13 13 14 14 14 14 15 15 15 15 15 14 15 15 15
4 5 3 4 4 5 5 6 6 5 5 5 4 4 5 5 5 5 6 6 6 6 6 6 7 6 6 2 3 4 3 3 5 5 4 6 8 6 1 2 4 3 2 3 2 1 2 2 3 3 4 4 3 2 2 1 1 2 3 3 4 5 5 6 6 7 8 9 9 9 11 12 12 12 13 13 14 14 14 13 12 12 13 14 15
4 4 3 4 4 4 4 4 4 4 4 5 5 4 4 5 4 5 4 4 4 4 4 4 4 3 3 4 3 4 3 5 5 7 7 7 6 7 5 2 3 5 2 2 1 3 1 0 0 1 3 3 3 3 2 2 1 2 2 2 2 3 4 5 5 4 5 6 7 8 8 9 10 11 11 12 11 11 11 11 10 10 11 12 13
6 4 3 4 3 3 4 4 4 4 4 4 4 4 4 4 3 3 3 3 4 4 3 5 5 4 4 4 4 3 3 5 6 6 7 8 8 8 8 7 3 3 3 1 0 1 3 0 1 1 2 3 3 3 3 3 4 5 3 1 1 2 3 4 5 5 4 4 4 5 7 8 8 8 8 8 8 8 9 9 10 10 10 10 11
4 4 4 5 4 4 4 4 4 5 4 5 4 4 4 5 4 4 4 2 5 4 4 5 5 5 5 4 4 1 1 5 7 7 7 7 6 6 7 9 10 5 2 2 0 1 2 2 1 3 3 3 4 4 4 4 4 6 4 2 1 1 1 3 3 3 4 3 3 3 4 6 7 7 7 7 6 7 7 8 8 8 8 9 10
4 4 4 4 4 5 5 4 4 4 4 4 5 5 5 5 5 4 4 2 5 4 4 6 4 5 4 5 5 4 3 5 7 7 7 6 6 6 7 10 9 9 5 3 3 3 4 2 3 4 4 4 4 3 3 4 5 5 3 3 3 2 2 2 2 2 3 3 2 2 2 3 5 6 6 6 6 6 6 6 6 7 7 8 9
4 3 4 4 4 5 5 4 4 5 4 4 5 5 5 5 4 4 3 4 6 4 4 5 4 4 4 4 4 6 3 5 6 6 7 7 7 7 6 4 8 10 7 7 5 2 4 3 2 3 4 5 4 3 4 5 6 6 3 3 3 3 3 3 2 2 2 2 2 1 1 1 1 3 4 5 6 5 5 5 5 5 6 6 6
5 5 4 4 4 4 4 4 4 5 4 4 4 5 5 5 4 4 3 5 6 5 3 5 3 5 5 5 5 5 4 7 7 7 6 6 7 7 6 5 3 7 8 6 5 3 3 5 3 2 6 6 5 4 4 5 6 7 4 3 3 3 3 2 4 3 3 3 3 3 3 3 3 1 1 2 4 4 4 3 4 3 3 3 4
5 5 5 4 4 4 4 4 4 4 5 4 5 5 5 4 4 5 3 5 5 4 3 3 3 4 5 5 4 4 4 5 6 6 5 4 5 6 6 6 4 4 7 5 6 6 4 5 4 4 6 7 6 5 5 5 5 8 4 4 3 4 3 2 4 5 5 5 4 3 4 4 4 4 2 1 1 3 3 3 4 4 3 1 1
5 5 5 4 4 4 4 4 5 5 5 4 4 4 5 4 4 4 3 4 5 3 4 4 4 4 4 4 4 3 2 6 5 5 5 4 5 6 7 7 6 5 7 5 7 4 0 1 3 5 6 5 5 6 6 6 5 5 4 2 2 3 3 3 3 6 7 6 6 5 5 5 5 5 4 2 2 2 3 4 4 5 5 4 3
6 6 5 4 4 4 4 4 4 4 4 4 4 4 5 5 4 3 4 4 4 4 4 5 4 4 4 5 4 4 3 5 4 4 5 4 6 6 7 8 7 6 4 5 3 5 4 1 1 0 3 4 6 5 7 6 7 4 3 3 2 3 4 4 5 5 9 8 7 6 6 6 6 6 5 5 4 4 4 4 5 5 5 6 5
4 6 5 4 4 4 4 4 4 4 4 4 3 4 4 5 5 3 3 4 4 4 5 4 4 4 5 5 4 3 3 6 4 4 3 3 3 6 4 4 7 6 4 5 6 4 6 4 3 4 4 4 6 6 6 6 0 1 4 5 5 5 4 4 5 4 8 9 9 7 6 6 6 6 6 6 7 6 6 6 6 6 6 6 6
5 4 5 5 4 4 4 3 4 4 4 4 3 4 5 4 4 4 3 3 4 4 5 4 4 4 5 5 3 4 5 5 4 4 4 4 4 4 4 3 4 5 4 4 5 5 4 6 4 6 5 5 6 4 3 2 4 5 5 4 3 4 4 4 4 5 7 9 8 7 6 5 5 5 6 8 8 8 7 7 7 7 8 8 7
4 5 3 4 4 4 4 4 3 3 4 4 4 4 4 4 5 4 4 4 4 4 5 5 5 5 4 5 4 4 5 6 4 4 4 5 4 4 3 2 3 4 3 4 3 3 5 6 5 4 2 3 2 2 3 5 1 2 1 2 3 5 3 3 3 4 3 3 4 4 5 7 5 5 6 7 7 7 8 8 8 7 8 9 8
3 4 6 4 5 5 4 4 4 4 4 4 5 4 4 4 4 5 5 5 5 5 5 5 5 4 5 5 4 4 5 6 5 4 4 5 4 5 5 3 3 3 4 3 2 4 6 6 6 4 1 3 2 2 3 4 6 3 2 2 3 2 1 1 1 1 2 2 1 0 1 1 4 4 7 9 11 11 11 10 9 8 5 7 9
4 3 4 5 4 6 5 4 4 5 4 4 4 3 4 4 5 6 5 5 5 5 5 6 5 5 5 5 5 5 5 5 6 6 5 5 5 5 6 6 4 4 5 4 3 4 4 4 2 2 4 4 2 3 1 3 3 4 5 3 1 2 2 2 4 3 3 3 2 4 3 4 8 7 10 11 12 12 14 13 12 12 10 6 7
2 3 4 5 5 5 6 5 5 5 5 4 3 3 3 4 4 5 5 5 5 5 5 5 5 6 6 6 6 6 5 5 6 6 6 6 4 5 4 5 5 5 5 4 4 4 4 4 3 4 1 2 1 1 1 2 2 0 1 3 5 1 2 4 3 3 2 3 5 5 6 8 8 8 10 10 12 14 14 12 13 14 13 9 6
3 3 4 4 6 4 5 5 5 4 6 6 4 4 5 4 4 5 4 4 4 5 5 5 4 4 4 4 4 5 4 7 9 9 8 8 6 6 4 4 5 6 4 4 6 6 5 5 2 1 2 0 1 2 2 1 4 6 1 2 2 0 0 3 1 2 1 2 2 3 4 3 6 6 5 7 7 8 9 10 11 15 16 14 10
2 2 0 0 4 6 6 5 5 5 5 4 7 11 8 6 5 5 4 4 4 4 5 5 5 4 4 4 5 7 8 9 9 9 10 11 10 8 7 5 6 5 5 5 4 5 6 5 5 5 3 3 2 1 3 2 1 2 4 3 3 0 1 2 1 0 2 5 5 6 6 3 6 6 6 6 5 5 5 7 8 10 14 17 16
4 3 3 2 0 2 5 6 6 5 5 5 11 12 12 11 7 5 5 5 4 4 4 5 6 6 4 4 4 6 7 7 8 11 11 10 9 10 10 9 7 7 5 4 5 6 6 5 3 3 4 4 1 1 3 3 1 3 3 4 5 4 4 2 1 5 2 5 3 4 6 4 4 5 4 4 4 5 6 7 11 14 15 17 18
3 3 5 4 4 2 1 2 4 5 5 6 6 9 12 14 11 7 5 5 5 4 4 5 5 5 5 4 4 4 5 6 6 5 5 7 8 8 7 6 6 4 5 7 6 4 3 4 4 5 5 6 4 4 3 3 4 4 3 4 3 4 3 2 1 1 3 3 3 2 5 4 4 4 4 3 4 3 4 8 12 13 14 15 16
3 4 3 4 4 3 3 1 3 4 4 6 9 11 12 12 12 9 7 7 7 7 6 7 6 6 6 6 6 5 5 7 5 4 5 4 4 7 7 6 4 4 4 4 5 6 7 6 6 5 6 5 5 4 3 4 3 5 2 3 2 3 3 2 2 2 3 0 4 2 0 2 2 2 3 4 3 3 4 7 11 12 12 12 13
2 2 1 2 1 1 3 2 0 1 2 2 6 11 14 15 14 9 5 6 8 8 9 9 7 7 7 7 6 6 4 3 3 4 5 5 4 4 3 2 2 2 3 2 3 5 6 7 8 8 6 5 7 4 4 5 5 4 4 3 3 4 3 1 1 2 1 2 3 1 1 1 3 3 3 5 4 3 3 5 10 10 10 10 10
5 5 5 4 3 1 1 1 1 1 2 4 5 7 9 12 13 10 6 5 6 6 5 5 7 8 7 6 6 6 3 2 1 0 1 2 3 3 3 2 2 1 1 1 0 1 3 4 6 6 6 4 5 6 4 3 5 5 6 5 7 4 3 0 2 2 3 4 3 2 0 1 2 3 2 3 3 4 2 3 8 8 8 8 8
6 6 5 3 3 4 3 4 5 5 5 8 8 8 8 8 9 6 7 7 7 6 6 6 7 7 7 8 7 8 6 4 3 3 4 4 3 4 5 3 2 1 1 2 4 4 2 3 5 7 6 7 8 8 7 6 4 5 6 6 5 4 4 4 1 3 2 2 4 2 1 1 1 2 3 4 3 4 2 3 5 5 5 6 6
6 6 4 4 4 4 3 3 4 5 6 8 10 11 10 10 6 6 5 6 6 7 8 7 7 6 5 4 4 4 5 6 10 12 12 12 7 6 5 3 2 2 1 2 5 7 6 8 11 11 11 11 10 10 9 8 7 6 7 6 2 3 5 2 1 3 2 2 3 1 1 1 2 2 4 3 3 3 2 3 3 5 7 6 6
6 5 4 5 5 4 4 4 3 5 6 8 10 11 11 10 9 6 7 6 8 6 6 5 5 6 7 10 8 6 6 6 11 12 14 13 8 7 7 6 5 5 3 0 2 4 8 8 9 9 9 9 8 7 6 6 6 4 6 4 4 6 5 5 1 1 2 0 2 1 2 0 2 1 2 4 3 2 1 2 3 4 5 5 5
4 4 4 4 5 4 4 4 6 5 7 9 11 12 13 12 8 6 6 6 6 8 8 8 7 6 5 8 13 12 9 9 12 13 15 13 8 9 9 9 9 8 7 6 4 5 4 4 3 4 3 5 5 4 4 7 7 6 5 6 5 6 5 4 3 1 1 1 2 1 3 2 3 2 1 4 1 5 2 2 3 4 4 3 3
Wind_Direction
143 157 133 116 111 114 119 128 112 113 119 81 83 79 63 63 71 73 77 76 63 50 56 32 73 92 117 116 124 120 119 110 103 91 85 92 101 112 115 129 152 146 137 138 142 140 131 128 138 145 145 136 134 132 131 129 128 127 124 124 121 118 108 110 109 103 104 97 89 89 87 86 88 86 86 88 86 84 83 81 76 73 71 72 78
152 162 131 120 109 105 113 125 121 117 99 95 103 102 110 82 79 82 86 87 80 77 85 89 90 82 76 117 118 119 122 120 109 104 102 97 106 117 115 97 96 161 141 147 137 134 135 129 133 145 144 139 142 150 147 147 150 145 143 139 137 131 120 118 116 115 109 108 104 100 97 92 85 84 81 86 88 89 91 87 81 80 77 66 78
154 147 126 118 120 125 131 122 107 113 115 113 113 114 117 112 98 107 113 106 101 107 103 91 89 107 74 102 108 115 119 119 118 119 109 106 126 140 123 100 89 87 107 128 141 143 136 137 137 149 150 153 156 158 156 159 163 161 153 155 156 156 148 135 131 124 117 116 113 108 102 94 90 89 85 85 89 91 85 83 85 85 82 74 72
148 137 128 124 132 141 144 140 147 150 124 125 117 129 132 119 102 98 107 115 115 112 127 117 109 75 63 102 105 109 122 124 119 107 103 133 163 164 103 84 103 104 99 88 79 124 139 140 146 145 151 163 165 165 167 175 178 172 165 164 171 165 170 164 151 131 128 127 125 118 113 107 100 93 93 89 86 81 85 91 93 91 86 68 70
152 135 128 138 150 146 134 145 150 151 138 131 127 119 120 114 101 108 105 111 109 105 82 49 65 94 88 101 119 119 126 118 96 64 117 203 175 78 56 51 77 114 109 96 91 51 65 164 155 154 145 160 172 175 181 185 193 186 176 177 179 182 178 175 144 146 145 137 129 121 124 113 106 102 99 101 93 87 83 83 88 97 93 83 71
142 121 133 141 138 140 138 137 143 138 132 130 112 118 110 114 126 101 108 116 117 120 110 98 260 89 71 111 107 115 116 93 78 169 216 165 70 70 77 16 46 46 44 66 69 60 67 70 92 89 127 149 169 177 191 198 195 195 190 188 187 188 186 189 175 153 164 153 144 147 132 126 115 109 100 96 99 96 87 79 82 83 91 93 86
145 142 149 143 140 136 144 151 143 143 130 103 105 84 107 120 121 105 115 117 109 116 116 140 133 100 131 134 120 115 95 74 116 200 205 118 83 71 18 25 31 31 46 41 38 46 44 50 56 59 40 23 193 180 195 179 195 196 207 197 193 195 187 183 182 179 187 177 167 165 162 138 142 129 119 104 100 113 105 100 89 80 84 97 95
144 144 140 141 135 141 156 143 139 130 120 110 102 110 106 92 81 122 122 113 111 115 121 130 122 122 143 112 107 102 82 96 189 210 76 73 94 114 42 24 46 358 73 42 41 36 47 56 46 36 25 36 24 333 312 343 353 355 346 294 228 195 190 186 185 193 190 190 178 190 179 164 158 146 142 138 142 127 118 111 114 94 85 84 100
137 143 135 141 136 143 156 146 144 141 132 130 121 131 119 104 73 77 110 123 119 115 112 132 128 119 101 88 82 92 92 153 188 168 138 136 88 84 103 168 195 111 56 63 52 48 49 50 43 33 23 19 15 23 356 83 270 288 298 317 297 270 243 217 204 207 202 193 183 187 184 180 174 169 166 161 166 176 149 144 140 130 130 85 86
133 140 141 140 136 140 141 136 137 134 136 138 133 129 118 127 121 94 103 122 121 119 117 113 102 99 94 89 86 96 122 154 194 139 173 152 149 155 180 208 149 124 112 74 62 62 58 44 38 32 31 25 31 29 42 358 38 312 314 336 334 288 279 262 254 222 216 216 210 191 185 185 181 191 175 174 178 184 182 169 163 134 130 135 101
133 137 133 124 120 126 130 143 139 134 125 116 124 125 123 118 129 114 80 78 117 105 106 104 96 91 81 66 80 96 105 141 179 165 194 183 169 162 157 187 143 105 109 88 77 74 60 53 51 51 38 54 52 52 48 47 45 31 36 33 7 329 38 307 275 282 258 237 232 209 186 189 191 192 187 183 187 188 193 185 179 186 156 160 165
131 130 130 134 137 143 141 144 142 133 125 121 130 145 142 130 128 119 104 76 57 94 104 101 86 80 84 66 60 88 116 153 193 230 184 167 175 138 149 134 105 91 94 97 74 61 70 59 60 58 56 59 54 50 46 42 38 32 33 45 55 42 44 314 289 296 295 272 254 257 218 191 193 194 201 196 192 193 195 188 189 204 197 180 183
139 137 146 142 139 135 131 137 137 142 143 153 164 148 121 114 115 93 114 111 76 102 110 115 106 73 64 68 55 46 81 109 139 214 207 115 93 110 100 104 98 98 84 79 74 71 73 74 82 73 61 53 50 46 45 39 35 31 31 35 45 68 113 338 300 290 321 321 290 259 315 300 207 203 201 207 206 205 201 197 192 196 202 202 189
141 143 142 143 137 132 140 143 137 149 151 142 141 133 117 120 133 84 34 123 129 158 194 115 46 131 121 73 31 16 54 77 120 120 133 99 86 93 89 117 121 117 90 79 75 80 80 87 81 79 65 60 51 39 37 31 26 30 27 28 30 40 45 74 285 284 223 238 295 349 20 27 16 238 234 231 221 219 207 204 209 202 200 204 198
149 139 136 140 131 132 141 146 147 149 133 137 140 139 134 138 151 135 111 50 102 89 139 76 138 97 91 90 69 65 355 17 27 61 97 124 116 135 121 103 86 90 99 89 87 82 74 67 77 74 76 63 46 39 36 23 27 30 25 25 36 34 37 36 37 38 19 222 227 46 340 301 327 26 340 273 259 252 227 208 218 213 211 216 214
142 137 131 145 147 140 137 142 148 146 150 150 158 152 135 128 116 151 140 128 106 36 29 62 125 137 98 117 176 118 92 55 41 354 340 114 128 126 128 115 105 96 89 87 80 75 78 77 77 77 68 56 49 42 38 25 22 23 19 24 22 20 25 43 42 49 49 44 41 45 104 130 54 18 320 327 313 295 305 290 237 220 220 222 222
149 144 145 165 150 130 133 143 137 139 147 150 156 161 163 156 149 160 175 150 156 104 2 46 67 74 137 113 58 43 206 201 114 13 360 66 133 134 106 101 104 96 88 81 75 71 83 80 76 73 63 57 50 44 37 28 22 19 12 23 28 27 25 48 58 57 54 54 70 77 72 82 86 29 53 0 303 271 268 295 299 273 236 226 225
149 146 145 160 157 149 139 142 147 158 149 149 133 134 153 154 170 162 152 196 145 123 106 21 67 59 117 162 163 171 173 202 88 115 11 18 69 103 108 85 87 88 82 82 80 76 76 84 76 68 57 49 40 39 29 19 27 17 22 22 33 39 38 34 54 56 63 67 56 61 71 70 66 64 64 64 61 15 248 249 266 281 282 252 234
165 153 159 160 149 144 142 146 158 169 152 137 144 155 158 157 148 147 156 133 127 144 163 170 43 12 21 33 81 115 133 131 140 137 78 355 18 65 72 82 97 97 89 83 93 92 77 80 75 64 57 55 47 41 33 23 27 33 39 34 37 39 39 40 40 69 74 73 72 64 60 62 60 55 53 50 52 57 61 70 262 291 319 342 331
163 161 145 149 145 152 152 147 149 167 159 159 159 163 152 129 139 143 145 155 157 154 168 173 159 229 351 20 55 95 99 93 106 138 133 120 69 22 42 39 84 80 94 106 105 102 97 82 79 68 57 54 56 48 38 29 21 22 33 39 48 45 45 46 47 44 63 67 66 68 68 66 64 61 58 54 50 50 49 53 58 56 50 356 319
147 148 153 159 154 162 153 151 156 161 150 103 103 148 155 139 137 141 162 165 136 136 147 181 157 165 117 24 56 71 73 82 112 94 128 121 92 131 131 22 58 54 86 96 99 96 98 101 96 98 95 81 76 75 57 46 36 26 44 49 54 58 51 55 56 52 51 66 69 69 68 68 66 63 61 58 53 49 46 44 43 42 44 47 48
114 139 124 130 126 143 157 169 170 147 145 155 129 128 140 156 168 166 158 149 153 156 172 171 165 160 165 157 121 95 81 80 70 96 56 47 145 167 165 141 120 44 108 113 103 90 98 102 106 111 102 88 72 72 54 43 36 37 39 43 55 55 51 66 61 59 58 60 67 67 67 66 66 66 63 60 56 53 51 48 46 44 43 44 44
109 101 115 128 116 106 105 110 133 142 125 131 144 144 149 155 155 140 147 155 171 161 134 161 144 162 175 164 164 163 162 157 166 147 136 123 100 124 108 127 129 104 36 88 101 113 113 120 121 111 108 95 84 82 71 54 61 65 58 45 51 58 59 62 63 61 60 58 60 65 64 62 61 62 63 63 58 54 51 48 44 40 39 38 37
75 72 50 70 83 74 79 88 101 112 124 132 127 134 140 132 133 140 159 173 163 162 156 154 158 171 183 180 178 138 119 135 157 142 140 156 142 151 146 125 73 71 118 79 54 68 102 114 114 122 119 117 122 117 114 91 96 89 67 64 59 60 64 68 67 66 64 61 56 58 64 62 60 58 55 55 56 52 48 46 40 36 35 35 31
76 76 74 90 97 90 86 98 106 116 131 127 127 130 131 128 131 132 144 156 173 166 171 174 167 172 187 174 150 138 155 134 125 129 111 123 136 135 136 90 134 107 114 121 117 62 73 87 130 130 134 135 135 141 149 140 138 104 85 61 46 72 77 77 74 69 65 69 69 66 69 67 64 62 60 56 53 53 50 46 39 31 30 29 28
108 107 126 99 79 102 102 88 97 112 119 124 129 134 126 122 125 131 134 148 150 157 153 159 166 159 147 146 164 181 185 133 141 132 137 123 132 138 131 47 87 123 111 56 169 90 351 59 89 149 146 147 154 163 173 190 208 167 132 113 87 96 93 89 86 71 69 70 78 80 77 76 72 67 64 61 57 50 46 41 40 39 35 30 25
122 136 115 100 103 85 86 94 98 105 106 110 116 112 105 97 93 107 97 109 118 123 131 140 144 151 155 156 173 199 197 157 153 158 154 157 155 158 139 122 74 77 110 79 51 37 177 219 160 219 203 169 176 187 184 191 198 186 169 150 161 117 95 95 89 77 62 62 58 76 87 84 81 78 72 69 66 60 54 46 42 39 38 34 30
126 117 105 110 100 79 67 77 99 105 105 112 109 102 101 99 92 92 87 76 102 101 128 123 129 137 138 124 104 173 209 163 170 158 169 164 153 148 147 140 142 138 77 105 33 27 144 119 247 208 224 198 204 197 200 188 195 188 173 174 192 207 145 115 106 93 88 83 62 46 77 94 98 100 94 83 74 67 60 54 45 36 33 27 31
123 114 108 97 103 95 82 78 86 99 96 99 107 109 108 109 115 107 95 84 96 107 111 101 113 116 125 154 136 132 127 146 160 160 149 130 141 155 167 153 150 138 152 144 200 160 226 187 151 225 189 220 206 212 203 202 204 187 185 180 184 201 212 166 148 135 118 100 82 73 46 88 102 104 102 99 91 81 71 57 48 42 29 24 25
120 112 106 103 98 96 91 79 90 92 99 100 106 109 104 102 110 108 131 114 97 89 99 114 129 128 117 85 82 76 84 114 131 136 137 143 148 170 187 168 152 152 160 150 198 202 185 214 168 174 184 215 207 211 217 222 212 192 198 183 190 202 203 208 198 166 149 139 146 194 245 275 142 113 108 110 111 108 99 87 67 51 40 31 28
113 110 104 102 97 84 90 89 96 104 104 111 111 108 112 108 101 101 87 99 105 108 126 117 129 102 92 83 78 78 74 99 108 115 117 129 157 173 171 152 191 149 144 136 133 236 152 189 236 203 171 202 205 199 219 233 215 199 200 190 197 191 188 224 240 220 203 209 211 224 241 249 259 201 106 117 129 126 132 130 116 88 55 38 31
124 125 121 119 112 104 93 104 102 107 113 116 113 115 109 114 116 103 102 102 107 117 100 74 96 89 89 80 68 89 85 95 98 108 120 133 148 146 148 140 118 125 122 123 138 176 206 181 193 187 178 189 193 194 230 239 227 203 207 202 178 157 183 215 247 247 231 222 226 238 258 266 255 252 207 202 153 138 148 154 148 140 145 141 89
132 127 127 130 129 126 116 117 126 125 123 118 112 111 112 114 110 118 109 104 109 111 104 75 69 82 81 84 68 48 77 97 112 113 110 125 112 118 131 128 133 147 130 133 135 141 50 192 154 182 197 171 195 202 213 229 235 221 209 174 159 169 202 205 225 245 238 233 230 234 253 271 279 271 261 242 227 198 176 184 185 172 174 176 195
138 139 140 147 134 128 118 115 126 128 129 130 123 113 117 118 119 117 114 100 103 103 103 98 83 88 99 97 85 69 71 91 87 90 118 110 113 113 131 141 149 161 176 113 146 133 169 223 180 72 177 189 201 182 196 211 231 208 183 163 188 199 203 198 213 236 236 230 229 229 244 259 275 284 290 291 278 259 240 219 213 200 192 194 204
147 146 150 147 144 134 127 127 127 131 140 144 131 116 127 136 141 137 118 119 124 125 117 125 118 109 93 98 104 100 89 76 67 69 75 106 119 120 128 132 146 167 193 152 134 142 160 205 189 165 194 202 204 205 199 203 99 182 171 188 192 207 211 191 210 231 233 228 229 234 237 257 273 292 309 308 297 287 277 263 250 239 226 217 212
140 159 145 146 145 143 144 149 129 129 143 145 128 136 144 150 152 158 141 140 145 149 149 148 142 121 120 106 116 102 90 81 70 75 77 92 97 105 121 149 153 170 181 165 156 136 164 166 232 189 201 185 232 253 215 118 138 193 189 173 175 203 205 198 211 227 230 221 226 237 249 262 278 287 301 312 310 305 295 285 277 261 246 235 226
141 133 127 139 140 145 157 169 136 145 163 153 140 154 157 164 166 160 166 163 160 160 161 163 160 142 137 134 153 117 104 102 95 97 95 97 111 113 130 163 178 170 162 164 155 126 140 177 205 235 186 230 243 254 201 142 127 88 30 89 174 201 206 229 223 244 253 205 225 264 285 276 265 276 299 305 307 305 303 304 304 285 253 240 232
145 139 144 165 161 165 175 172 154 172 172 165 156 157 158 169 175 166 172 171 169 165 166 169 167 162 154 163 176 150 134 132 149 151 140 134 131 126 135 156 164 145 157 175 161 150 161 181 183 218 244 209 222 253 227 155 134 115 95 46 57 51 111 110 339 14 77 83 103 125 232 75 53 27 6 359 353 344 342 345 345 341 287 237 227
146 163 144 165 183 165 180 164 163 172 183 178 154 155 148 161 171 169 172 164 175 176 179 177 179 177 170 172 179 176 164 156 153 160 154 150 140 140 146 151 152 142 147 161 141 133 156 167 221 218 213 235 185 236 346 131 137 144 158 141 97 343 3 62 52 34 56 62 91 116 65 33 29 24 6 354 343 343 344 353 354 346 337 295 248
147 191 164 171 170 163 167 176 176 170 167 174 168 166 172 170 172 175 171 166 177 190 193 198 188 188 187 185 184 186 178 171 163 169 155 158 151 145 167 138 145 137 146 138 116 122 138 158 177 209 209 249 337 8 328 84 113 16 106 139 149 117 20 14 24 68 349 35 21 5 8 12 9 11 7 349 352 354 354 360 3 8 6 347 301
187 193 190 165 141 155 162 172 173 177 162 177 183 175 173 186 186 189 190 180 170 183 198 207 211 208 206 199 200 200 197 183 180 170 176 161 153 161 196 149 137 135 142 146 149 138 130 132 136 55 80 52 278 169 157 164 182 191 195 103 120 204 333 83 41 12 55 51 12 24 10 20 1 359 0 360 0 1 6 10 12 10 10 8 354
154 148 105 263 164 161 161 176 178 182 186 182 189 186 179 180 191 198 196 196 179 177 188 200 211 210 205 198 205 205 197 184 181 187 180 170 172 166 183 176 162 153 160 152 160 160 151 150 175 154 137 185 253 223 166 212 188 146 95 88 109 283 66 50 319 284 332 42 22 8 337 12 20 353 23 18 354 10 13 23 15 24 22 19 14
84 91 112 104 100 200 178 170 183 197 206 205 202 193 195 191 183 196 201 212 201 190 195 191 200 204 212 207 199 195 183 177 181 182 172 168 171 182 182 188 179 167 164 173 189 169 167 171 174 152 161 181 248 225 152 139 105 129 132 124 119 83 88 79 338 308 354 40 31 25 340 349 36 12 1 21 359 7 19 22 25 36 37 35 30
87 79 75 77 65 68 114 147 181 206 217 230 226 227 214 205 200 192 194 204 207 205 202 201 203 194 200 204 219 202 196 187 179 175 148 135 139 139 136 133 129 140 170 169 182 198 168 149 167 189 158 178 175 155 159 122 127 82 82 99 104 114 95 83 165 239 269 37 57 50 321 324 21 58 44 6 1 360 15 27 36 44 43 39 34
53 55 89 96 81 41 52 106 207 214 216 222 208 207 229 239 230 209 195 201 200 207 203 200 200 201 194 196 205 217 215 211 191 170 159 141 121 130 134 126 111 118 126 158 184 185 173 166 170 186 182 169 159 201 196 161 143 116 119 78 89 105 134 150 214 250 307 331 96 86 347 314 18 53 35 339 351 343 14 31 44 47 44 39 35
49 104 68 61 67 95 111 114 122 333 260 249 234 221 214 220 227 227 238 214 210 204 202 198 197 202 203 196 199 211 234 228 218 191 172 158 150 135 127 114 119 94 95 96 116 150 173 178 170 183 207 168 165 178 178 144 122 144 130 156 149 129 152 169 203 208 267 336 94 127 31 316 3 47 14 324 340 333 23 36 49 45 44 37 34
11 358 352 341 319 259 201 161 160 235 249 218 219 231 239 231 225 211 231 240 235 230 209 189 188 194 196 186 187 195 177 158 160 124 268 185 137 123 108 93 74 39 33 31 10 142 150 151 167 153 147 152 138 143 157 163 148 168 164 170 177 169 151 9 52 351 37 21 59 89 292 266 316 36 323 298 319 323 20 7 45 43 39 33 29
9 11 3 0 305 293 261 231 221 240 236 210 215 220 207 216 213 207 209 217 220 221 204 196 195 198 190 186 186 191 183 170 201 190 156 121 144 149 150 144 110 25 11 332 301 284 266 168 145 141 141 146 146 148 156 153 128 106 88 78 71 64 81 63 106 318 47 336 37 77 95 289 282 51 321 305 346 331 343 353 356 23 27 28 21
7 3 342 316 300 291 266 223 235 251 260 242 224 226 212 196 174 199 209 214 211 213 212 210 210 207 204 208 222 211 184 191 177 176 168 160 176 180 150 130 118 94 14 345 14 57 109 125 123 126 135 143 149 151 149 149 140 133 105 91 110 123 87 80 353 15 344 350 348 67 148 346 336 50 320 297 309 302 340 328 311 348 356 2 4
358 349 322 319 314 301 296 288 236 244 265 266 250 244 241 214 195 202 219 215 228 235 248 251 246 230 217 211 215 235 225 205 191 190 180 176 182 179 155 152 150 163 203 302 35 48 62 78 97 117 139 149 132 114 112 111 129 145 113 136 181 111 104 119 158 215 269 355 327 290 66 271 306 23 352 300 342 297 271 303 350 320 318 323 328
354 337 345 337 327 319 298 280 291 267 265 269 256 246 244 238 213 218 214 214 224 229 231 237 231 224 226 219 217 217 213 204 194 197 191 187 185 173 173 168 173 179 181 181 164 124 112 110 93 107 92 82 87 97 97 103 101 96 111 137 142 111 132 157 161 141 17 316 310 346 58 305 33 311 87 355 326 284 257 287 306 297 302 306 304